FW7128 Weather Reports


Display with metric or nautical units.
time (UTC)temp
F
wind
direction
speed
MPH
gust
MPH
rain 1hr
in
rain 24hr
in
rain mn
in
humidity
%
barometer
mb
20260506051133 53 96 3.0 7.0 0.00 0.00 0.00 76 1011.3
20260506050631 53 153 0.0 5.0 0.00 0.00 0.00 76 1011.1
20260506050128 53 146 2.0 3.0 0.00 0.00 0.00 76 1011.4
20260506045121 53 61 3.0 5.0 0.00 0.00 0.00 75 1011.4
20260506044619 53 84 0.0 5.0 0.00 0.00 0.00 75 1011.0
20260506044116 53 137 2.0 4.0 0.00 0.00 0.00 75 1011.2
20260506043613 53 84 0.0 4.0 0.00 0.00 0.00 74 1011.3
20260506043111 54 89 0.0 6.0 0.00 0.00 0.00 74 1011.5
20260506042610 54 121 0.0 5.0 0.00 0.00 0.00 74 1011.4
20260506042108 54 102 0.0 5.0 0.00 0.00 0.00 74 1011.3
20260506041606 54 116 2.0 5.0 0.00 0.00 0.00 74 1011.3
20260506041102 54 194 0.0 7.0 0.00 0.00 0.00 74 1011.0
20260506040600 54 304 0.0 5.0 0.00 0.00 0.00 74 1011.2
20260506040056 54 120 0.0 4.0 0.00 0.00 0.00 74 1011.3
20260506035553 54 77 4.0 5.0 0.00 0.00 0.00 73 1011.2
20260506035050 54 160 4.0 8.0 0.00 0.00 0.00 73 1011.1
20260506034547 54 97 9.0 9.0 0.00 0.00 0.00 73 1011.1
20260506034044 54 126 4.0 5.0 0.00 0.00 0.00 73 1010.9
20260506033542 54 184 0.0 7.0 0.00 0.00 0.00 73 1011.1
20260506033038 55 204 0.0 4.0 0.00 0.00 0.00 73 1010.7
20260506032536 55 137 3.0 5.0 0.00 0.00 0.00 73 1010.9
20260506032032 55 104 4.0 5.0 0.00 0.00 0.00 72 1010.5
20260506031530 55 96 6.0 7.0 0.00 0.00 0.00 72 1010.8
20260506031027 55 63 3.0 5.0 0.00 0.00 0.00 72 1010.6
20260506030525 55 124 4.0 4.0 0.00 0.00 0.00 72 1010.5
20260506030022 55 93 3.0 5.0 0.00 0.00 0.00 71 1010.6
20260506025519 56 124 0.0 7.0 0.00 0.00 0.00 71 1010.5
20260506025015 56 89 0.0 5.0 0.00 0.00 0.00 71 1011.0
20260506024512 56 135 3.0 5.0 0.00 0.00 0.00 71 1010.8
20260506024008 56 153 2.0 4.0 0.00 0.00 0.00 71 1010.5
20260506023504 56 114 4.0 6.0 0.00 0.00 0.00 71 1010.6
20260506023002 56 142 2.0 5.0 0.00 0.00 0.00 71 1010.4
20260506022459 56 122 3.0 6.0 0.00 0.00 0.00 71 1010.2
20260506021957 56 167 0.0 5.0 0.00 0.00 0.00 71 1010.1
20260506021454 56 158 0.0 7.0 0.00 0.00 0.00 72 1009.9
20260506020951 56 118 2.0 3.0 0.00 0.00 0.00 72 1009.7
20260506020449 56 162 2.0 4.0 0.00 0.00 0.00 72 1009.7
20260506015946 56 145 0.0 5.0 0.00 0.00 0.00 72 1009.8
20260506015443 56 119 5.0 6.0 0.00 0.00 0.00 73 1009.7
20260506014940 56 153 3.0 5.0 0.00 0.00 0.00 73 1009.2
20260506014437 56 60 0.0 5.0 0.00 0.00 0.00 73 1009.2
20260506013933 56 149 0.0 7.0 0.00 0.00 0.00 74 1009.2
20260506013432 56 159 0.0 6.0 0.00 0.00 0.00 74 1009.1
20260506012928 56 168 3.0 8.0 0.00 0.00 0.00 74 1008.9
20260506012424 56 167 3.0 5.0 0.00 0.00 0.00 74 1008.8
20260506011921 57 126 5.0 7.0 0.00 0.00 0.00 74 1008.5
20260506011418 57 149 2.0 7.0 0.00 0.00 0.00 74 1008.4
20260506010915 57 70 7.0 7.0 0.00 0.00 0.00 73 1008.5
20260506010414 57 337 0.0 5.0 0.00 0.00 0.00 73 1008.3
20260506005910 57 161 0.0 5.0 0.00 0.00 0.00 73 1008.6
20260506005408 58 152 4.0 7.0 0.00 0.00 0.00 72 1008.3
20260506004903 58 104 3.0 7.0 0.00 0.00 0.00 73 1008.2
20260506004401 58 125 0.0 4.0 0.00 0.00 0.00 73 1008.1
20260506003857 59 92 2.0 4.0 0.00 0.00 0.00 72 1008.2
20260506003353 58 115 0.0 5.0 0.00 0.00 0.00 72 1008.2
20260506002850 59 184 0.0 4.0 0.00 0.00 0.00 73 1008.2
20260506002346 59 114 4.0 6.0 0.00 0.00 0.00 72 1008.3
20260506001842 59 215 0.0 6.0 0.00 0.00 0.00 71 1008.1
20260506001339 60 14 0.0 5.0 0.00 0.00 0.00 71 1008.0
20260506000836 60 120 4.0 4.0 0.00 0.00 0.00 71 1008.2
20260506000334 60 3 0.0 6.0 0.00 0.00 0.00 70 1007.7
20260505235830 61 66 2.0 5.0 0.00 0.00 0.00 69 1007.7
20260505235328 61 136 5.0 5.0 0.00 0.00 0.00 68 1007.7
20260505234824 62 168 0.0 5.0 0.00 0.00 0.00 67 1007.6
20260505234322 62 244 0.0 5.0 0.00 0.00 0.00 67 1007.5
20260505233819 62 150 0.0 3.0 0.00 0.00 0.00 67 1007.6
20260505233317 63 180 0.0 5.0 0.00 0.00 0.00 65 1007.4
20260505232814 64 138 0.0 4.0 0.00 0.00 0.00 65 1007.5
20260505232311 64 162 0.0 5.0 0.00 0.00 0.00 64 1007.2
20260505231808 64 50 0.0 5.0 0.00 0.00 0.00 64 1007.6
20260505231306 65 99 4.0 5.0 0.00 0.00 0.00 62 1007.3
20260505230804 66 241 3.0 7.0 0.00 0.00 0.00 62 1007.6
20260505230301 66 156 0.0 6.0 0.00 0.00 0.00 61 1007.6
20260505225757 66 88 0.0 2.0 0.00 0.00 0.00 61 1007.7
20260505225255 67 181 3.0 3.0 0.00 0.00 0.00 60 1007.4
20260505224749 68 253 0.0 4.0 0.00 0.00 0.00 59 1007.5
20260505224247 69 178 2.0 8.0 0.00 0.00 0.00 58 1007.4
20260505223745 70 210 0.0 6.0 0.00 0.00 0.00 55 1007.6
20260505223241 68 132 0.0 5.0 0.00 0.00 0.00 57 1007.4
20260505222737 68 201 0.0 3.0 0.00 0.00 0.00 57 1007.3
20260505222234 69 254 5.0 6.0 0.00 0.00 0.00 57 1007.4
20260505221731 70 237 5.0 9.0 0.00 0.00 0.00 56 1007.3
20260505221227 69 269 0.0 5.0 0.00 0.00 0.00 55 1007.0
20260505220724 71 195 0.0 9.0 0.00 0.00 0.00 54 1006.9
20260505220222 71 305 2.0 5.0 0.00 0.00 0.00 53 1006.9
20260505215720 70 254 3.0 7.0 0.00 0.00 0.00 54 1007.0
20260505215217 68 196 3.0 4.0 0.00 0.00 0.00 56 1007.0
20260505214715 70 17 0.0 6.0 0.00 0.00 0.00 55 1007.0
20260505214212 69 229 2.0 8.0 0.00 0.00 0.00 54 1006.9
20260505213709 70 44 3.0 6.0 0.00 0.00 0.00 55 1007.2
20260505213206 69 232 4.0 5.0 0.00 0.00 0.00 55 1007.2
20260505212702 70 257 3.0 5.0 0.00 0.00 0.00 56 1007.4
20260505212200 71 279 9.0 11.0 0.00 0.00 0.00 54 1007.0
20260505211657 69 126 0.0 6.0 0.00 0.00 0.00 56 1007.0
20260505211154 70 283 3.0 13.0 0.00 0.00 0.00 56 1006.9
20260505210650 70 244 6.0 8.0 0.00 0.00 0.00 55 1007.0
20260505210147 70 289 6.0 11.0 0.00 0.00 0.00 55 1007.0
20260505205645 70 195 0.0 10.0 0.00 0.00 0.00 56 1007.0
20260505205143 70 300 0.0 7.0 0.00 0.00 0.00 56 1007.1
20260505204639 69 268 4.0 4.0 0.00 0.00 0.00 56 1006.7
20260505204137 69 247 0.0 10.0 0.00 0.00 0.00 57 1006.8
20260505203634 70 276 4.0 5.0 0.00 0.00 0.00 56 1006.2
20260505203131 71 238 0.0 9.0 0.00 0.00 0.00 55 1006.8
20260505202626 71 239 8.0 8.0 0.00 0.00 0.00 54 1006.8
20260505202122 72 296 3.0 5.0 0.00 0.00 0.00 53 1006.5
20260505201619 71 264 0.0 7.0 0.00 0.00 0.00 54 1007.0
20260505201117 71 282 2.0 7.0 0.00 0.00 0.00 54 1006.9
20260505200615 70 267 0.0 6.0 0.00 0.00 0.00 55 1006.7
20260505200112 71 282 0.0 9.0 0.00 0.00 0.00 54 1006.9
20260505195608 71 278 5.0 10.0 0.00 0.00 0.00 54 1006.9
20260505195105 69 246 4.0 7.0 0.00 0.00 0.00 57 1006.8
20260505194602 69 240 0.0 5.0 0.00 0.00 0.00 56 1006.8
20260505194058 69 227 4.0 4.0 0.00 0.00 0.00 57 1006.8
20260505193555 69 274 0.0 9.0 0.00 0.00 0.00 55 1006.9
20260505193052 70 276 4.0 7.0 0.00 0.00 0.00 54 1006.9
20260505192551 70 273 0.0 4.0 0.00 0.00 0.00 55 1006.9
20260505192048 72 255 5.0 11.0 0.00 0.00 0.00 53 1006.9
20260505191546 72 213 3.0 9.0 0.00 0.00 0.00 54 1007.0
20260505191044 71 275 7.0 8.0 0.00 0.00 0.00 54 1006.7
20260505190538 70 293 2.0 5.0 0.00 0.00 0.00 56 1006.4
20260505190034 73 295 7.0 11.0 0.00 0.00 0.00 52 1006.7
20260505185531 73 246 0.0 5.0 0.00 0.00 0.00 53 1006.3
20260505185028 73 238 4.0 9.0 0.00 0.00 0.00 55 1006.4
20260505184524 74 284 0.0 8.0 0.00 0.00 0.00 52 1006.5
20260505184021 75 278 3.0 8.0 0.00 0.00 0.00 53 1006.7
20260505183518 73 233 5.0 5.0 0.00 0.00 0.00 55 1006.4
20260505183016 72 303 0.0 10.0 0.00 0.00 0.00 54 1006.1
20260505182512 72 214 2.0 8.0 0.00 0.00 0.00 56 1006.5
20260505182008 74 265 5.0 7.0 0.00 0.00 0.00 54 1006.4
20260505181505 74 290 4.0 9.0 0.00 0.00 0.00 54 1006.5
20260505181003 71 260 0.0 8.0 0.00 0.00 0.00 56 1006.8
20260505180458 71 322 0.0 8.0 0.00 0.00 0.00 56 1006.4
20260505175955 72 246 0.0 11.0 0.00 0.00 0.00 57 1006.1
20260505175451 72 260 6.0 9.0 0.00 0.00 0.00 57 1005.8
20260505174948 72 266 0.0 8.0 0.00 0.00 0.00 58 1005.7
20260505174445 73 300 5.0 7.0 0.00 0.00 0.00 57 1005.8
20260505173941 74 283 5.0 9.0 0.00 0.00 0.00 56 1005.5
20260505173438 73 252 3.0 5.0 0.00 0.00 0.00 59 1005.5
20260505172935 74 245 3.0 9.0 0.00 0.00 0.00 57 1005.4
20260505172433 75 283 4.0 9.0 0.00 0.00 0.00 56 1005.1
20260505171932 76 264 6.0 6.0 0.00 0.00 0.00 56 1005.1
20260505171430 77 263 2.0 6.0 0.00 0.00 0.00 55 1004.8
20260505170926 78 305 5.0 8.0 0.00 0.00 0.00 54 1004.6
20260505170423 77 276 2.0 8.0 0.00 0.00 0.00 54 1004.8
20260505165918 77 255 5.0 9.0 0.00 0.00 0.00 54 1004.7
20260505165415 77 260 9.0 9.0 0.00 0.00 0.00 53 1004.5
20260505164910 77 277 5.0 9.0 0.00 0.00 0.00 52 1004.6
20260505164407 76 247 5.0 6.0 0.00 0.00 0.00 49 1004.4
20260505163905 77 254 3.0 6.0 0.00 0.00 0.00 49 1004.4
20260505163404 77 276 5.0 8.0 0.00 0.00 0.00 44 1004.2
20260505162902 78 285 6.0 10.0 0.00 0.00 0.00 39 1004.3
20260505162357 78 250 2.0 8.0 0.00 0.00 0.00 38 1004.3
20260505161855 78 258 4.0 6.0 0.00 0.00 0.00 37 1004.4
20260505161351 78 177 4.0 7.0 0.00 0.00 0.00 36 1003.9
20260505160849 80 263 3.0 7.0 0.00 0.00 0.00 35 1003.8
20260505160347 80 244 3.0 7.0 0.00 0.00 0.00 35 1003.9
20260505153325 79 259 4.0 10.0 0.00 0.00 0.00 40 1003.3
20260505152822 78 260 0.0 5.0 0.00 0.00 0.00 42 1003.1
20260505152319 78 282 2.0 7.0 0.00 0.00 0.00 41 1003.0
20260505151814 78 265 2.0 5.0 0.00 0.00 0.00 46 1002.8
20260505151311 78 224 8.0 8.0 0.00 0.00 0.00 44 1003.0
20260505150808 78 236 2.0 11.0 0.00 0.00 0.00 46 1002.8
20260505150305 78 226 3.0 13.0 0.00 0.00 0.00 50 1003.0
20260505140229 73 204 11.0 16.0 0.00 0.00 0.00 71 1002.3
20260505130153 69 191 5.0 13.0 0.00 0.00 0.00 80 1001.8
20260505124643 69 182 11.0 22.0 0.00 0.00 0.00 81 1001.5
20260505124139 69 206 7.0 13.0 0.00 0.00 0.00 81 1001.5
20260505123635 69 188 7.0 20.0 0.00 0.00 0.00 81 1001.4
20260505123132 69 188 6.0 20.0 0.00 0.00 0.00 81 1001.5
20260505122629 69 178 11.0 16.0 0.00 0.00 0.00 81 1001.5
20260505122126 69 210 6.0 21.0 0.00 0.00 0.00 81 1001.3
20260505121622 69 215 7.0 25.0 0.00 0.00 0.00 81 1001.0
20260505121119 69 187 13.0 18.0 0.00 0.00 0.00 81 1001.1
20260505120615 69 198 16.0 20.0 0.00 0.00 0.00 81 1001.1
20260505120111 69 214 10.0 13.0 0.00 0.00 0.00 81 1001.1
20260505115606 69 198 17.0 20.0 0.00 0.00 0.00 80 1000.9
20260505115103 69 193 7.0 17.0 0.00 0.00 0.00 80 1001.0
20260505114555 69 203 10.0 15.0 0.00 0.00 0.00 80 1001.1
20260505114051 69 202 8.0 15.0 0.00 0.00 0.00 80 1001.1
20260505113548 69 221 11.0 21.0 0.00 0.00 0.00 80 1001.0
20260505113044 70 188 6.0 22.0 0.00 0.00 0.00 80 1000.9
20260505112540 70 209 6.0 22.0 0.00 0.00 0.00 79 1000.8
20260505112039 70 188 10.0 21.0 0.00 0.00 0.00 79 1000.8
20260505111538 70 198 6.0 22.0 0.00 0.00 0.00 79 1000.9
20260505111035 70 210 13.0 21.0 0.00 0.00 0.00 79 1000.7
20260505110531 70 199 10.0 21.0 0.00 0.00 0.00 79 1000.7
20260505101958 71 179 9.0 17.0 0.00 0.00 0.00 77 1000.8
20260505101455 71 183 5.0 23.0 0.00 0.00 0.00 77 1000.6
20260505100952 71 203 15.0 16.0 0.00 0.00 0.00 77 1000.6
20260505100450 71 181 9.0 19.0 0.00 0.00 0.00 76 1000.6
20260505095945 72 199 11.0 21.0 0.00 0.00 0.00 76 1000.7
20260505095442 72 148 5.0 21.0 0.00 0.00 0.00 76 1000.5
20260505094938 72 192 6.0 22.0 0.00 0.00 0.00 76 1000.4
20260505094435 72 195 6.0 16.0 0.00 0.00 0.00 75 1000.7
20260505093931 72 195 12.0 19.0 0.00 0.00 0.00 75 1000.8
20260505093428 72 213 7.0 13.0 0.00 0.00 0.00 75 1000.6
20260505092925 73 173 4.0 17.0 0.00 0.00 0.00 74 1000.5
20260505092423 73 194 16.0 21.0 0.00 0.00 0.00 74 1000.8
20260505091920 73 190 15.0 20.0 0.00 0.00 0.00 74 1000.6
20260505091418 73 205 13.0 17.0 0.00 0.00 0.00 73 1000.6
20260505090916 73 212 6.0 17.0 0.00 0.00 0.00 73 1000.7
20260505090414 73 204 10.0 21.0 0.00 0.00 0.00 73 1000.8
20260505085911 73 209 6.0 20.0 0.00 0.00 0.00 72 1000.8
20260505085409 74 213 9.0 25.0 0.00 0.00 0.00 72 1000.7
20260505084907 74 189 15.0 27.0 0.00 0.00 0.00 72 1000.8
20260505084405 74 207 6.0 15.0 0.00 0.00 0.00 72 1000.7
20260505083903 74 193 14.0 22.0 0.00 0.00 0.00 71 1000.9
20260505083400 74 193 13.0 21.0 0.00 0.00 0.00 71 1000.7
20260505082855 74 197 17.0 19.0 0.00 0.00 0.00 71 1000.8
20260505082351 74 203 9.0 22.0 0.00 0.00 0.00 71 1000.9
20260505081849 74 192 16.0 22.0 0.00 0.00 0.00 71 1000.9
20260505081345 74 179 3.0 19.0 0.00 0.00 0.00 71 1001.0
20260505080842 74 205 12.0 21.0 0.00 0.00 0.00 71 1001.0
20260505080338 74 204 7.0 17.0 0.00 0.00 0.00 71 1001.1
20260505075833 74 180 12.0 29.0 0.00 0.00 0.00 71 1001.2
20260505075331 75 216 11.0 24.0 0.00 0.00 0.00 70 1001.1
20260505074828 75 204 14.0 22.0 0.00 0.00 0.00 70 1001.0
20260505074325 75 207 11.0 23.0 0.00 0.00 0.00 70 1001.0
20260505073822 75 197 5.0 19.0 0.00 0.00 0.00 70 1001.0
20260505073320 75 185 17.0 19.0 0.00 0.00 0.00 70 1001.3
20260505072817 75 172 5.0 20.0 0.00 0.00 0.00 70 1001.0
20260505072313 75 164 5.0 18.0 0.00 0.00 0.00 70 1001.3
20260505071809 75 177 5.0 15.0 0.00 0.00 0.00 70 1001.2
20260505071306 75 195 9.0 20.0 0.00 0.00 0.00 69 1001.4
20260505070804 75 194 8.0 20.0 0.00 0.00 0.00 69 1001.3
20260505070300 75 190 7.0 17.0 0.00 0.00 0.00 69 1001.2
20260505065755 75 225 10.0 14.0 0.00 0.00 0.00 69 1001.5
20260505065252 75 191 7.0 14.0 0.00 0.00 0.00 69 1001.7
20260505064749 75 210 11.0 11.0 0.00 0.00 0.00 69 1001.6
20260505064247 75 183 7.0 17.0 0.00 0.00 0.00 69 1001.8
20260505063744 75 223 11.0 17.0 0.00 0.00 0.00 69 1001.8
20260505063241 75 192 15.0 21.0 0.00 0.00 0.00 69 1001.9
20260505062737 75 200 6.0 22.0 0.00 0.00 0.00 69 1002.0
20260505062234 75 158 9.0 18.0 0.00 0.00 0.00 69 1001.9
20260505061731 75 201 9.0 17.0 0.00 0.00 0.00 69 1002.1
20260505061229 75 184 9.0 21.0 0.00 0.00 0.00 69 1002.1
20260505060726 75 215 6.0 18.0 0.00 0.00 0.00 69 1002.3
20260505060224 75 151 8.0 12.0 0.00 0.00 0.00 69 1002.0
20260505055718 75 147 9.0 17.0 0.00 0.00 0.00 69 1002.1
20260505055215 75 191 13.0 14.0 0.00 0.00 0.00 69 1002.2